Home   Weather   Melbourne Bluff   Past weeks
Flag for Australia

Past Weather in Melbourne Bluff, Heard and McDonald Islands, Australia — Yesterday and Last 2 Weeks

Now
61 °F

Sunny.


Feels Like: 61 °F
Forecast: 69 / 51 °F
Wind: 14 mph from South

Location: Belmont Perth Airport

Current Time: Apr 20, 2019 at 9:29:44 am

Latest Report: Apr 20, 2019 at 9:00 am


Visibility: 10 mi

Pressure: 30.30 "Hg

Humidity: 42%

Dew Point: 37 °F

Location of Melbourne BluffLocation

Past Weather in Melbourne Bluff — Graph

°F

Melbourne Bluff Temperature Yesterday

Maximum temperature yesterday: 61 °F (at 10:23 am)
Minimum temperature yesterday: 45 °F (at 9:30 pm)
Average temperature yesterday: 53 °F

High & Low Weather Summary for the Past Weeks

 TemperatureHumidityPressure
High93 °F (Apr 9, 1:00 pm)100% (Apr 15, 9:00 pm)30.33 "Hg (Apr 15, 9:00 pm)
Low39 °F (Apr 20, 3:00 am)20% (Apr 9, 1:00 pm)29.74 "Hg (Apr 18, 9:30 pm)
Average66 °F65%30.01 "Hg
* Reported Apr 5 8:00 am — Apr 20 8:30 am, Melbourne Bluff. Weather by CustomWeather, © 2019

Note: Actual official high and low records may vary slightly from our data, if they occured in-between our weather recording intervals... More about our weather records

Advertising

Melbourne Bluff Weather History for the Previous 24 Hours

Scroll right to see more
 ConditionsComfort  
Time TempWeatherWind HumidityBarometerVisibility
8:30 am
Sat, Apr 20
61 °FPassing clouds.12 mph42%30.30 "HgN/A
8:00 am59 °FPassing clouds.9 mph48%30.30 "HgN/A
7:30 am59 °FSunny.12 mph45%30.30 "Hg10 mi
7:00 am57 °FPassing clouds.9 mph48%30.33 "HgN/A
6:30 am55 °FSunny.9 mph55%30.33 "Hg10 mi
6:00 am54 °FSunny.1 mph67%30.33 "Hg10 mi
5:00 am46 °FSunny.1 mph93%30.30 "Hg10 mi
4:30 am43 °FSunny.3 mph93%30.30 "Hg10 mi
4:00 am39 °FSunny.3 mph100%30.27 "Hg10 mi
3:30 am39 °FClear.3 mph93%30.27 "Hg10 mi
3:00 am39 °FClear.3 mph100%30.24 "Hg10 mi
2:30 am41 °FClear.5 mph93%30.24 "Hg10 mi
2:00 am41 °FClear.5 mph100%30.24 "Hg10 mi
1:30 am43 °FClear.5 mph93%30.24 "Hg10 mi
1:00 am45 °FClear.5 mph93%30.21 "Hg10 mi
12:30 am45 °FClear.5 mph93%30.21 "HgN/A
12:00 am45 °FPassing clouds.5 mph100%30.21 "HgN/A
11:30 pm
Fri, Apr 19
46 °FPassing clouds.6 mph93%30.21 "HgN/A
11:00 pm46 °FPassing clouds.1 mph93%30.21 "HgN/A
10:30 pm45 °FScattered showers. Partly cloudy.5 mph93%30.21 "HgN/A
10:00 pm46 °FSprinkles. Partly cloudy.3 mph93%30.21 "HgN/A
9:30 pm45 °FPassing clouds.3 mph93%30.18 "HgN/A
9:00 pm46 °FPassing clouds.6 mph93%30.18 "HgN/A
8:30 pm48 °FSprinkles. Passing clouds.6 mph87%30.18 "Hg5 mi
8:00 pm46 °FScattered showers. Partly cloudy.6 mph93%30.18 "HgN/A
7:30 pm46 °FPassing clouds.7 mph93%30.15 "HgN/A
7:00 pm48 °FSprinkles. Partly cloudy.9 mph87%30.15 "Hg6 mi
6:30 pm50 °FSprinkles. Partly cloudy.9 mph88%30.15 "Hg6 mi
6:00 pm48 °FPassing clouds.7 mph94%30.12 "HgN/A
5:30 pm48 °FPassing clouds.6 mph87%30.12 "HgN/A
5:00 pm50 °FPartly cloudy.8 mph82%30.12 "HgN/A
4:30 pm50 °FSprinkles. Partly cloudy.15 mph82%30.12 "Hg6 mi
4:20 pm50 °FRain showers. Passing clouds.22 mph82%30.12 "Hg2 mi
4:00 pm52 °FSprinkles. Passing clouds.25 mph72%30.12 "Hg4 mi
3:30 pm55 °FScattered showers. Partly cloudy.9 mph55%30.09 "HgN/A
3:00 pm55 °FScattered showers. Passing clouds.9 mph51%30.09 "HgN/A
2:30 pm57 °FSunny.14 mph41%30.09 "Hg10 mi
2:00 pm57 °FScattered showers. Clear.20 mph48%30.07 "HgN/A
1:00 pm61 °FSunny.17 mph45%30.07 "Hg10 mi
12:30 pm61 °FScattered clouds.16 mph45%30.07 "HgN/A
12:03 pm61 °FScattered showers. Clear.17 mph36%30.04 "HgN/A
11:00 am61 °FBroken clouds.23 mph42%30.04 "HgN/A
10:30 am57 °FScattered showers. Partly sunny.20 mph59%30.04 "HgN/A
10:23 am61 °FSprinkles. Partly sunny.17 mph55%30.04 "HgN/A
10:00 am57 °FBroken clouds.7 mph67%30.04 "HgN/A
9:30 am57 °FPartly sunny.7 mph63%30.04 "HgN/A
9:00 am55 °FScattered clouds.6 mph72%30.07 "HgN/A
Weather by CustomWeather, © 2019

See weather overview